Palmdale Regional/USAF Plant 42 Airport
KPMD : now visible

Airfield :











YOU CAN JOIN US ON...

 
LOGIN :

Register | Disclaimer

   EN    FR    IT 

 









Legend :    VFR   Marginal VFR   IFR   Intensive IFR   Very Intensive IFR
Visi :
Ceiling :
>= 8 km
>= 3000ft
5 to 8 km
1000 to 3000 ft
1500m to 5 km
500 to 1000 ft
800 to 1500m
200 to 500 ft
< 800m
< 200 ft
Symbols :   Thunderstorms  Fog  Heavy snow  Heavy precipitations  Wind > 20 kt






- Airport Elevation : 2543 ft
- IATA code : PMD


KPMD - Palmdale Regional/USAF Plant 42

CURRENT METAR :
  • 110853Z AUTO 00000KT 10SM CLR 24/M13 A2994 RMK AO2 SLP103 T02441133 58006

EXPIRED METARs :
  • 110753Z AUTO 16004KT 10SM CLR 24/M11 A2995 RMK AO2 SLP108 T02391106 403780194
  • 110653Z AUTO 17009KT 10SM CLR 24/M12 A2996 RMK AO2 SLP112 T02441122

TAF KPMD
Valid from the 11 at 06:00 until the 12 at 06:00 UTC


110547Z 1106/1206 20008KT P6SM SKC
FM111600 25005KT P6SM SKC
FM112000 25015G25KT P6SM SKC
FM120300 24012KT P6SM SKC
KZLA FIR / North America



MET'MAP, your aeronautical weather chart ! - Copyright ORBIFLY December 2007 - Disclaimer

ORBIFLY MET'MAP TEAM :

Programming & Development : Alexandra Zaïnal
Concept & original design : Baudouin d'Aumeries
Assistance for programming : Marc-Olivier Méhu
Technical & hardware support : Manuel Goepfert

Contact : metmap@orbifly.com




SOURCES & CREDITS :

   NOAA       Earth
Advisory